RH
86 77 63 54 48 51 57 63 68 73 70 74 70 62 56 54 56 57 62 66 72 72 75 68 68 72 73
91 84 79 67 60 56 59 62 65 68 65 62 61 60 56 57 58 57 61 62 60 66 62 61 59 63 69
94 90 80 75 63 59 51 55 61 65 72 64 59 57 63 64 64 62 60 59 58 64 65 61 59 64 67
99 94 90 83 77 61 54 51 50 52 57 62 68 67 61 65 67 62 59 58 65 65 64 62 62 68 67
97 98 92 91 88 85 65 52 52 49 49 51 50 60 69 68 63 63 56 60 66 63 58 60 66 63 66
98 98 95 92 97 95 92 79 66 59 51 43 48 53 60 67 64 55 55 62 61 55 58 68 64 66 71
94 96 92 92 94 97 96 93 84 69 60 55 56 53 53 56 57 52 60 62 55 56 64 65 68 74 71
80 92 90 93 97 94 92 93 95 88 75 65 53 48 49 58 55 54 62 56 55 62 69 72 69 73 73
68 76 87 90 92 97 98 98 93 85 79 68 55 56 53 62 57 63 65 60 63 71 70 66 73 79 78
47 66 69 77 81 85 86 86 86 86 79 77 71 61 65 68 65 72 74 77 78 78 74 76 76 75 70
54 71 79 85 86 81 82 84 86 87 81 78 74 73 73 67 75 80 84 86 87 90 92 89 81 74 69
60 82 99 90 84 80 90 92 94 92 87 89 72 71 73 76 82 86 91 93 93 98 97 92 88 87 74
66 87 86 79 84 91 94 96 97 95 86 88 82 76 76 80 86 91 93 94 96 97 98 95 87 79 69
70 69 76 78 74 86 98 94 95 89 88 94 90 91 93 92 92 92 94 97 98 97 97 95 86 78 70
59 66 66 61 68 75 88 88 88 83 93 96 99 98 97 93 94 95 98 99 98 98 97 92 87 75 70
56 56 59 56 71 71 75 83 87 84 77 87 93 99 99 98 98 99 99 98 99 98 98 91 82 77 77
69 59 55 65 70 67 79 92 92 84 83 90 99 99 94 96 96 98 99 99 98 99 94 83 81 83 87